Location: Salillas
(41.9950°N, 0.2228°W)
Time: 01:41:16
(UTC+00:00)

MOS 1 Rocket - Pass Details

Date: 29 March 2020
Orbit: 614 x 831 km, 97.4° (Epoch: 05 June)

Event Time Altitude Azimuth Distance (km) Brightness Sun altitude
Rises 20:07:01 0° 15° (NNE) 3,260 6.9 -19.3°
Reaches altitude 10° 20:09:19 10° 18° (NNE) 2,356 6.1 -19.7°
Maximum altitude 20:14:32 65° 100° (E) 890 3.5 -20.6°
Enters shadow 20:19:05 15° 181° (S) 2,106 5.5 -21.3°
